Volver al catálogo

STARLINK-33695

ActivoComunicacionesVLEO
NORAD 63478·PAYLOAD·🇺🇸 United States

Lanzado Apr 6, 2025 desde Cape Canaveral Space Force Station

Loading…

Próximos Pases (próximas 24 horas)

TLE

ActualizadoSource: CelesTrak SupGP

Época: Sep 15, 2026, 03:13 UTC

1 63478C 25070U   26258.13451389 -.00015675  00000+0 -56758-3 0  2586
2 63478  43.0024 266.1589 0001177 256.8681  69.4363 15.27596549    17

Sigue STARLINK-33695 en tiempo real con AllMySat

Download on the App Store